Location: G?julap?du
(16.5372°N, 81.0979°E)
Time: 15:22:54
(UTC+00:00)

Daily predictions for brighter satellites

Satellite Brightness Start Highest point End
(mag) Time Altitude Azimuth Time Altitude Azimuth Time Altitude Azimuth
ARIANE 5 R/B 4.0 12:48:34 10° WSW 12:53:28 44° SSE 13:20:04 10° E
Cosmos 2082 3.9 13:02:12 10° NNW 13:07:48 82° WSW 13:13:23 10° SSE
IRS-1C 4.4 13:02:54 10° S 13:08:12 77° WSW 13:13:31 10° NNW
GPS 2-15 Rocket1 3.6 13:05:19 10° W 13:09:49 52° SSW 13:14:15 10° ESE
NATO 3D Rocket 4.0 13:06:04 10° W 13:11:06 65° SSW 13:17:51 10° ESE
Cosmos 2322 4.3 13:07:24 10° SSE 13:12:25 33° ESE 13:17:27 10° NE
Atlas Centaur 2 3.1 13:09:58 10° NW 13:14:47 37° NNE 13:20:42 10° E
Cosmos 2219 Rocket 2.9 13:10:37 10° SSW 13:16:06 60° WNW 13:21:35 10° N
OAO 2 Rocket 3.9 13:13:14 10° SSW 13:18:02 39° SE 13:22:44 10° ENE
Spot 4 Rocket 4.4 13:17:38 10° SE 13:22:23 42° ENE 13:27:09 10° N
Meteor 1-22 Rocket 4.5 13:17:27 10° S 13:22:53 75° W 13:28:33 10° N
Helios 1A Rocket 4.1 13:23:22 10° ENE 13:24:56 13° E 13:25:58 12° ESE
Cosmos 1441 Rocket 4.5 13:23:59 10° NE 13:26:11 16° E 13:27:39 13° ESE
CENTAUR R/B 3.6 13:17:24 10° NNW 13:26:31 59° ENE 13:35:43 10° SE
CZ-2D R/B 3.5 13:23:30 10° SSE 13:27:31 52° ENE 13:31:26 10° N
Cosmos 1953 2.4 13:25:40 10° SSW 13:29:13 67° W 13:32:45 10° N
Cosmos 2074 Rocket 3.9 13:25:07 10° S 13:31:17 76° E 13:37:29 10° N
Resurs 01 Rocket 1.8 13:28:12 10° SSE 13:32:25 48° ENE 13:36:37 10° N
Cosmos 783 Rocket 4.5 13:29:35 10° NNW 13:34:51 86° ENE 13:40:07 10° SSE
Cosmos 1844 3.8 13:30:42 10° N 13:36:23 58° ENE 13:42:02 10° SSE
Cosmos 858 Rocket 4.5 13:32:14 10° SSW 13:37:29 87° ESE 13:42:44 10° NNE
SJ-6B 3.4 13:39:37 16° SE 13:41:51 30° ENE 13:45:05 10° NNE
SL-19 R/B 4.4 13:39:20 10° SSE 13:44:17 46° ENE 13:49:15 10° N
COSMOS 2428 2.7 13:38:54 10° S 13:44:31 62° ESE 13:50:09 10° NNE
Meteor 1-24 Rocket 4.1 13:40:59 10° NNE 13:46:18 42° E 13:51:47 10° SSE
CZ-3C R/B 3.8 13:43:17 10° WSW 13:47:36 43° S 14:02:25 16° ESE
ASC 2 Rocket 4.0 13:42:32 10° W 13:48:05 50° NNW 13:51:37 14° ENE
DNEPR-1 R/B 3.6 13:44:15 10° S 13:48:51 55° ESE 13:53:00 10° NE
NOSS 2-2 (D) 4.4 13:43:48 10° NNW 13:49:00 65° ENE 13:56:19 10° SSE
Cosmos 2227 4.3 13:43:55 10° NNW 13:49:40 86° WSW 13:55:25 10° SSE
OAO 3 Rocket 4.2 13:46:42 10° W 13:51:07 43° NNW 13:55:36 10° NE
Cosmos 1328 3.4 13:49:24 10° N 13:52:54 86° W 13:56:27 10° S
Cosmos 1610 Rocket 4.4 13:50:30 10° S 13:56:48 71° E 14:03:03 10° N
Okean 1-7 2.8 13:53:49 10° N 13:57:55 88° E 14:02:01 10° S
BlueWalker 3 2.1 13:58:22 10° NNW 14:01:47 43° NE 14:02:11 41° ENE
H-2A R/B 4.4 14:01:50 10° W 14:07:47 17° WSW 14:10:29 10° SSW
GPS 2-17 Rocket1 3.1 14:03:30 10° WNW 14:08:04 67° N 14:09:34 40° ENE
Milstar 3 3.9 14:05:27 10° SSW 14:11:52 32° SE 14:14:19 29° ESE
Cosmos 1933 Rocket 3.3 14:08:08 10° S 14:12:27 77° E 14:16:47 10° N
Cosmos 1538 Rocket 3.9 14:07:44 10° N 14:12:50 63° ENE 14:14:50 36° SE
Yuri Rocket 3.9 14:17:10 10° W 14:21:09 41° SSW 14:22:09 36° S
Cosmos 2218 Rocket 4.3 14:22:53 40° E 14:22:53 40° E 14:28:09 10° NNE
Palapa B4 Rocket 4.0 14:22:33 10° SW 14:25:00 28° SSW 14:25:00 28° SSW
NOSS 3-4 (A) 3.3 14:21:18 10° SSW 14:26:34 67° WNW 14:31:45 10° NNE
NOSS 3-4 (C) 3.3 14:21:46 10° SSW 14:27:03 68° WNW 14:32:17 10° NNE
Nadezhda 3 Rocket 3.8 14:25:21 10° N 14:31:29 86° E 14:35:06 27° S
Meteor 2-19 Rocket 4.4 14:26:56 10° N 14:32:54 55° E 14:33:05 54° E
Cosmos 962 Rocket 4.4 14:26:44 10° S 14:33:02 90° WSW 14:39:17 10° N
Cosmos 1844 Rocket 4.4 14:29:49 10° NW 14:34:32 29° WSW 14:39:15 10° SSW
Sakura Rocket 3.8 14:30:09 10° WNW 14:35:24 69° NNE 14:36:33 57° E
CSL-04 Debris 4.2 14:36:11 58° NE 14:36:11 58° NE 14:41:03 10° N
Cosmos 1869 Rocket 3.9 14:42:28 62° W 14:42:30 62° W 14:46:48 10° N
Meteor 2-5 Rocket 4.3 14:37:32 10° NNW 14:42:56 54° W 14:47:00 18° SSW
Cosmos 2237 Rocket 2.1 14:42:18 10° SSW 14:47:57 88° WNW 14:53:38 10° NNE
Cosmos 1980 3.7 14:43:27 10° SSW 14:49:05 77° WNW 14:54:43 10° NNE
SPOT 5 3.2 14:53:01 61° W 14:53:01 61° W 14:57:27 10° NNW
Tiangong 1.2 14:51:48 10° NW 14:52:04 12° NW 14:52:04 12° NW
CZ-4 R/B 4.1 15:03:34 12° NNW 15:03:34 12° NNW 15:03:54 10° NNW
OAO 2 Rocket 4.5 14:57:48 10° W 15:02:24 39° NNW 15:02:24 39° NNW
Atlas Centaur 2 2.5 14:57:24 10° WNW 15:03:02 72° SW 15:03:02 72° SW
Cosmos 2341 Rocket 4.5 15:05:57 29° SSW 15:09:00 56° W 15:15:06 10° N
ATLAS 5 CENTAUR R/B 4.2 20:42:05 82° N 20:42:11 82° N 21:38:00 10° E
Meteor 2-4 Rocket 4.4 22:02:25 48° ESE 22:02:38 48° E 22:07:50 10° NNE
ARIANE 5 R/B 4.4 22:07:15 28° SSE 22:07:15 28° SSE 22:19:49 10° ESE
ATLAS 3B R/B 2.8 22:00:56 10° NNW 22:08:20 75° ENE 22:15:08 10° SSE
SL-16 R/B 4.4 22:04:18 10° NNE 22:08:44 23° ENE 22:13:09 10° ESE
ATLAS 5 CENTAUR R/B 3.8 22:11:19 32° N 22:11:19 32° N 22:16:06 10° NNE
CZ-3 R/B 3.8 21:57:46 33° W 22:10:14 57° NNW 22:19:25 10° ENE
USA 234 4.2 22:09:28 10° ESE 22:15:36 44° NE 22:21:44 10° NNW
USA 229 DEB 4.0 22:08:54 10° NNW 22:17:04 71° WSW 22:25:28 10° SSE
USA 229 4.0 22:08:57 10° NNW 22:17:08 72° WSW 22:25:33 10° SSE
Chandra Rocket (1) 3.7 22:29:16 23° N 22:30:33 28° NNE 22:37:25 10° E
SL-16 R/B 3.3 22:27:04 10° SSE 22:33:05 53° ENE 22:39:07 10° N
SL-08 RB Rocket 4.2 22:30:33 10° N 22:33:48 48° N 22:33:48 48° N
Cosmos 841 Rocket 3.9 22:36:14 28° S 22:38:47 60° ESE 22:43:48 10° NNE
Cosmos 1655 Rocket 4.1 22:32:51 10° N 22:39:03 74° E 22:45:15 10° S
Cosmos 1842 Rocket 3.3 22:42:06 81° S 22:42:18 89° ESE 22:46:35 10° N
Meteor 1-11 Rocket 3.6 22:42:47 10° N 22:48:36 73° W 22:54:17 10° S
SL-24 R/B 3.8 22:45:41 10° N 22:49:20 66° NW 22:49:20 66° NW
ARGOS 4.4 22:48:46 10° NNW 22:51:58 25° NW 22:51:58 25° NW
Cosmos 1486 Rocket 3.8 22:51:09 10° NNW 22:56:19 71° WSW 23:01:31 10° S
ARIANE 5 R/B 4.2 22:59:22 24° SW 23:03:27 32° SSW 23:07:14 10° SE
Cosmos 2333 Rocket 2.4 23:00:08 10° NNW 23:05:47 76° ENE 23:11:28 10° SSE
CZ-2C R/B 2.7 23:02:55 10° N 23:07:26 42° WNW 23:09:01 31° WSW
Cosmos 1939 Rocket 2.5 23:08:40 10° N 23:12:15 66° WNW 23:14:36 20° SSW
CZ-3B R/B 4.1 23:09:32 10° S 23:13:18 45° ESE 23:24:17 10° NE
Meteor 1-28 Rocket 4.0 23:10:16 10° SSE 23:13:24 45° ENE 23:16:32 10° N
Cosmos 1777 Rocket 4.1 23:11:16 10° NNW 23:16:19 50° WSW 23:21:20 10° S
Cosmos 1151 Rocket 3.0 23:15:06 10° S 23:19:18 79° E 23:23:29 10° N
NOAA 12 4.4 23:15:31 10° NNE 23:20:43 69° ESE 23:25:54 10° S
Centaur D-1AR AC-41 3.8 23:19:33 17° WNW 23:22:29 62° NNE 23:34:18 10° E
Hubble Space Telescope 2.5 23:22:10 10° NW 23:25:16 24° NNE 23:28:23 10° ENE
DELTA 2 R/B (1) 3.8 23:21:51 22° WSW 23:25:21 56° NW 23:30:47 10° NE
ISS -2.4 23:27:47 21° WNW 23:28:44 23° NW 23:31:30 10° N
Cosmos 2360 Rocket 2.4 23:26:48 10° NNW 23:32:27 74° ENE 23:38:05 10° SSE
Aurora 2 Rocket 3.9 23:24:47 10° WNW 23:32:58 68° NNE 23:38:55 10° E
Cosmos 2278 3.7 23:28:14 10° NNW 23:33:49 59° WSW 23:39:23 10° S
Meteor 2-11 Rocket 4.5 23:29:16 10° NNW 23:35:16 57° W 23:41:15 10° S
Cosmos 2322 Rocket 2.1 23:36:58 10° NNW 23:42:36 77° WSW 23:48:14 10° S
Cosmos 1461 4.2 23:42:38 13° W 23:44:22 17° WNW 23:46:55 10° NNW
Cosmos 546 4.4 23:41:15 10° NW 23:44:58 72° SW 23:48:41 10° SSE
UNK 3.7 23:44:34 10° S 23:49:07 64° WSW 23:53:40 10° NNW
OAO 2 Rocket 4.3 23:45:21 10° W 23:49:19 26° SW 23:53:23 10° SSE
SL-16 R/B 3.0 23:47:55 10° NW 23:52:35 27° WSW 23:57:14 10° SSW
Cosmos 2227 Rocket 4.3 23:49:29 10° SSE 23:54:20 30° ESE 23:59:12 10° NE
GPS 2-12 Rocket1 2.9 23:50:46 10° W 23:55:03 80° N 23:59:19 10° ENE
Cosmos 1703 3.6 23:53:04 10° S 23:56:14 56° E 23:59:23 10° NNE
